[[{"header":{"parameterUnit":"m.s-1","parameterCategory":1,"la1":30.2991,"la2":30.254,"lo1":-89.0895,"lo2":-89.0444,"dy":0.0017,"dx":0.0017,"nx":28,"ny":28,"refTime":"2025-06-04T03:00:00:Z","depth":0,"parameterNumber":2,"parameterNumberName":"U-component_of_WINDS"},"data":[0,0,0,0,0,0,0,0,0,0,0,0,0,0,0,0,0,0,0,0,0,0,0,0,0,0,0,0,0,0,0,0,0,0,0,0,0,0,0,0,0,0,0,0,0,0,0,0,0,0,0,0,0,0,0,0,0,0,-6.186,-6.186,0,-6.1851,-6.1851,-6.185,-6.1727,-6.1724,-6.1721,-6.1718,-6.1708,-6.1711,-6.1713,0,0,0,0,0,0,0,0,0,0,0,0,0,-6.1772,-6.1775,-6.186,-6.186,-6.186,-6.1851,-6.1851,-6.185,-6.1728,-6.1724,-6.172,-6.1717,-6.1707,-6.1711,-6.1714,0,0,0,0,0,0,0,0,0,0,0,0,0,-6.1792,-6.1775,-6.186,-6.1798,-6.1792,-6.1851,-6.1851,-6.185,-6.1729,-6.1724,-6.1719,-6.1715,-6.1706,-6.171,-6.1714,-6.1832,0,0,-6.1726,-6.1728,0,0,0,0,0,0,0,0,-6.1791,-6.1795,-6.1807,-6.1802,-6.1796,-6.1785,-6.1816,-6.1844,-6.173,-6.1753,-6.1718,-6.1713,-6.1738,-6.1739,-6.1747,-6.1831,-6.1831,-6.1727,-6.1729,-6.1731,-6.1732,0,0,0,0,0,0,0,-6.1789,-6.1795,-6.1856,-6.1807,-6.1801,-6.177,-6.1768,-6.1821,-6.1772,-6.175,-6.1742,-6.1742,-6.1734,-6.1744,-6.1746,-6.1831,-6.1726,-6.173,-6.1732,-6.1734,-6.201,-6.2014,0,0,0,0,0,0,-6.1797,-6.1794,-6.1857,-6.1856,-6.1782,-6.1776,-6.1773,-6.1794,-6.1771,-6.1763,-6.1746,-6.1736,-6.1739,-6.1742,-6.1745,-6.1879,-6.1731,-6.1734,-6.1737,-6.2005,-6.2011,-6.2016,0,0,0,0,0,0,-6.1795,-6.1804,-6.1857,-6.1823,-6.1827,-6.1782,-6.1806,-6.1796,-6.1805,-6.1767,-6.1758,-6.1765,-6.1736,-6.174,-6.1811,-6.1877,-6.1736,-6.174,-6.1999,-6.2006,-6.2013,-6.2149,0,0,0,0,0,0,-6.1793,-6.1804,-6.1848,-6.1825,-6.183,-6.1923,-6.181,-6.1799,-6.1813,-6.18,-6.1783,-6.1775,-6.1732,-6.1806,-6.1815,-6.188,-6.1743,-6.1992,-6.2002,-6.2011,-6.2138,-6.216,-6.2179,0,0,0,0,0,-6.1791,-6.1887,-6.185,-6.1859,-6.1884,-6.1927,-6.193,-6.1878,-6.1819,-6.1862,-6.1838,-6.1776,-6.187,-6.1814,-6.1823,-6.1891,-6.1988,-6.1999,-6.201,-6.2129,-6.2156,-6.2179,0,0,0,0,0,0,-6.1918,-6.1882,-6.1842,-6.1933,-6.1934,-6.1906,-6.1959,-6.1908,-6.1926,-6.1913,-6.1849,-6.1846,-6.1927,-6.1916,-6.1855,-6.2003,-6.1918,-6.1932,-6.2005,-6.203,-6.205,-6.2049,-6.1746,0,0,0,0,0,-6.1957,-6.1995,-6.1962,-6.2046,-6.2048,-6.2005,-6.2021,-6.1982,-6.198,-6.198,-6.196,-6.1961,-6.199,-6.2011,-6.2036,-6.2139,-6.2132,-6.219,-6.221,-6.2227,-6.2238,-6.2289,-6.2314,-6.2053,-6.2053,-6.2052,0,0,-6.2037,-6.2022,-6.205,-6.2071,-6.2067,-6.2107,-6.2005,-6.2053,-6.2081,-6.1987,-6.2051,-6.2039,-6.2035,-6.2122,-6.2159,-6.2116,-6.2309,-6.2241,-6.2255,-6.2256,-6.2303,-6.2328,-6.235,-6.206,-6.2059,-6.2058,0,0,-6.2202,-6.2196,-6.2264,-6.2263,-6.2258,-6.2229,-6.2246,-6.2226,-6.2213,-6.2278,-6.2207,-6.2242,-6.2294,-6.2294,-6.2301,-6.2469,-6.2412,-6.248,-6.2584,-6.2635,-6.2655,-6.2673,-6.273,-6.2752,-6.2492,-6.2492,-6.2493,0,-6.2301,-6.2359,-6.2305,-6.2357,-6.2368,-6.2286,-6.2353,-6.2355,-6.2359,-6.2368,-6.2321,-6.2384,-6.2376,-6.2461,-6.2502,-6.2512,-6.2528,-6.2479,-6.2657,-6.2674,-6.269,-6.2743,-6.2766,-6.25,-6.2499,-6.2499,-6.2498,0,-6.248,-6.2522,-6.2578,-6.2583,-6.2601,-6.2661,-6.2616,-6.2641,-6.2602,-6.2578,-6.2644,-6.2633,-6.2653,-6.2672,-6.2634,-6.2751,-6.2724,-6.2668,-6.2581,-6.2724,-6.2773,-6.2793,-6.2512,-6.2509,-6.2506,-6.2504,0,0,-6.272,-6.2698,-6.2719,-6.272,-6.271,-6.2741,-6.2799,-6.2819,-6.284,-6.2847,-6.2891,-6.2939,-6.2887,-6.2895,-6.2857,-6.2903,-6.3034,-6.2841,-6.2839,-6.2873,-6.316,-6.3198,-6.3223,-6.2998,-6.3002,-6.3005,-6.3158,0,-6.2876,-6.297,-6.2925,-6.3024,-6.3061,-6.2986,-6.3035,-6.3035,-6.3015,-6.3043,-6.3021,-6.3054,-6.2985,-6.2989,-6.3032,-6.3009,-6.3089,-6.2998,-6.3036,-6.3038,-6.3035,-6.3249,-6.329,-6.3435,-6.3178,-6.3181,-6.3183,0,-6.307,-6.3085,-6.3188,-6.3171,-6.3185,-6.323,-6.3245,-6.3274,-6.3273,-6.3255,-6.3265,-6.3217,-6.3271,-6.3189,-6.3262,-6.3201,-6.3215,-6.3207,-6.3211,-6.3208,-6.3116,-6.3249,-6.3481,-6.3501,-6.3214,-6.3211,-6.3209,0,-6.323,-6.3277,-6.3343,-6.3348,-6.3331,-6.3364,-6.3359,-6.3353,-6.3368,-6.3382,-6.3391,-6.3412,-6.3422,-6.344,-6.3398,-6.3343,-6.3476,-6.3391,-6.3461,-6.3462,-6.3488,-6.3486,-6.3722,-6.3506,-6.3505,-6.3505,-6.3504,0,-6.3406,-6.3471,-6.3415,-6.3456,-6.3527,-6.3475,-6.3547,-6.3534,-6.3529,-6.3566,-6.3504,-6.354,-6.3485,-6.3516,-6.3484,-6.3548,-6.3554,-6.354,-6.353,-6.3543,-6.3544,-6.3548,-6.3535,-6.3511,-6.3509,-6.3508,-6.3507,0,-6.3594,-6.356,-6.3627,-6.3607,-6.3604,-6.3657,-6.3639,-6.3676,-6.3653,-6.37,-6.3709,-6.3673,-6.3705,-6.3667,-6.3697,-6.3676,-6.3762,-6.3739,-6.3762,-6.3753,-6.3824,-6.3816,-6.4066,-6.4095,-6.3865,-6.3867,-6.3869,0,-6.3707,-6.3755,-6.374,-6.376,-6.3759,-6.3793,-6.3808,-6.3761,-6.3779,-6.3782,-6.3818,-6.3846,-6.3865,-6.3922,-6.3898,-6.392,-6.3895,-6.3981,-6.3898,-6.3909,-6.3892,-6.3887,-6.3891,-6.3997,-6.3999,-6.4002,-6.4004,0,-6.3909,-6.3889,-6.3914,-6.3933,-6.3953,-6.3966,-6.3974,-6.3995,-6.3945,-6.397,-6.4002,-6.4018,-6.4048,-6.4076,-6.4093,-6.4087,-6.4037,-6.4031,-6.4047,-6.4059,-6.4068,-6.406,-6.3803,-6.4024,-6.4022,-6.402,-6.4019,-6.4019,-6.4059,-6.4098,-6.4094,-6.4123,-6.4125,-6.4134,-6.4167,-6.4149,-6.4176,-6.4196,-6.4168,-6.4209,-6.4207,-6.4223,-6.4224,-6.4255,-6.4218,-6.4243,-6.4248,-6.4254,-6.4263,-6.4068,-6.4258,-6.4257,-6.4257,-6.4256,-6.4256,0,-6.4254,-6.4248,-6.4276,-6.429,-6.4313,-6.4266,-6.4273,-6.4295,-6.4332,-6.4335,-6.4355,-6.4393,-6.442,-6.44,-6.4423,-6.4451,-6.4429,-6.4459,-6.4453,-6.4453,-6.4297,-6.4278,-6.4476,-6.4476,-6.4476,-6.4476,-6.4476,-6.4476,-6.4358,-6.442,-6.4402,-6.4464,-6.4458,-6.4497,-6.4505,-6.4513,-6.4514,-6.4559,-6.4582,-6.4569,-6.4562,-6.4584,-6.4607,-6.46,-6.461,-6.4647,-6.4632,-6.4486,-6.4464,-6.4443,-6.4425,-6.4651,-6.4651,-6.4785,-6.4786,-6.4787]},{"header":{"parameterUnit":"m.s-1","parameterCategory":1,"la1":30.2991,"la2":30.254,"lo1":-89.0895,"lo2":-89.0444,"dy":0.0017,"dx":0.0017,"nx":28,"ny":28,"refTime":"2025-06-04T03:00:00:Z","depth":0,"parameterNumber":3,"parameterNumberName":"V-component_of_WINDS"},"data":[0,0,0,0,0,0,0,0,0,0,0,0,0,0,0,0,0,0,0,0,0,0,0,0,0,0,0,0,0,0,0,0,0,0,0,0,0,0,0,0,0,0,0,0,0,0,0,0,0,0,0,0,0,0,0,0,0,0,2.5201,2.5202,0,2.5246,2.5247,2.5247,2.524,2.524,2.5239,2.5238,2.528,2.5282,2.5284,0,0,0,0,0,0,0,0,0,0,0,0,0,2.5107,2.5109,2.5201,2.5202,2.5202,2.5246,2.5247,2.5247,2.5241,2.524,2.5239,2.5238,2.528,2.5282,2.5284,0,0,0,0,0,0,0,0,0,0,0,0,0,2.515,2.5109,2.5201,2.5204,2.5205,2.5246,2.5247,2.5248,2.5241,2.524,2.5239,2.5237,2.5279,2.5282,2.5284,2.5324,0,0,2.5293,2.5294,0,0,0,0,0,0,0,0,2.5147,2.5153,2.5203,2.5204,2.5205,2.5237,2.5229,2.5273,2.5241,2.5227,2.5238,2.5237,2.5266,2.527,2.5281,2.5326,2.5327,2.5293,2.5295,2.5296,2.5297,0,0,0,0,0,0,0,2.5144,2.5151,2.5219,2.5204,2.5205,2.5203,2.5208,2.5237,2.5252,2.5228,2.5228,2.5234,2.5267,2.5278,2.5282,2.5328,2.5293,2.5295,2.5297,2.5298,2.5409,2.541,0,0,0,0,0,0,2.5141,2.5149,2.5218,2.522,2.5173,2.5205,2.5211,2.5228,2.5252,2.5255,2.5234,2.5233,2.5274,2.5279,2.5283,2.5331,2.5296,2.5298,2.53,2.5407,2.5409,2.541,0,0,0,0,0,0,2.5139,2.5147,2.5216,2.5184,2.5193,2.5208,2.5227,2.5229,2.5241,2.5257,2.5259,2.5244,2.5273,2.5279,2.5314,2.5333,2.53,2.5302,2.5406,2.5408,2.541,2.5427,0,0,0,0,0,0,2.5136,2.5146,2.5162,2.5185,2.5195,2.5247,2.5228,2.5231,2.5246,2.5245,2.5266,2.5269,2.5273,2.531,2.5317,2.5336,2.5304,2.5404,2.5407,2.5409,2.5425,2.543,2.5434,0,0,0,0,0,2.5133,2.5164,2.5163,2.5171,2.5215,2.5248,2.5253,2.5259,2.5247,2.5263,2.5274,2.5268,2.533,2.5314,2.5321,2.5341,2.5403,2.5406,2.5409,2.5423,2.5429,2.5434,0,0,0,0,0,0,2.514,2.5167,2.5166,2.5205,2.5225,2.5247,2.5266,2.5264,2.5286,2.5284,2.5289,2.5294,2.5329,2.5339,2.532,2.5381,2.5365,2.5369,2.5373,2.5379,2.5383,2.5379,2.5306,0,0,0,0,0,2.5147,2.5173,2.5194,2.5227,2.5237,2.525,2.5265,2.5268,2.5287,2.5295,2.5308,2.5326,2.535,2.5365,2.5388,2.5427,2.5432,2.5445,2.5449,2.5453,2.5456,2.5478,2.5484,2.542,2.542,2.542,0,0,2.516,2.5178,2.5194,2.5229,2.5245,2.527,2.5257,2.5284,2.5303,2.5298,2.5332,2.5343,2.5364,2.5401,2.5419,2.5411,2.5475,2.5456,2.5459,2.546,2.5482,2.5488,2.5493,2.5422,2.5422,2.5421,0,0,2.5198,2.5214,2.5244,2.526,2.5284,2.5293,2.53,2.5323,2.533,2.5365,2.5362,2.5385,2.5425,2.5441,2.5454,2.55,2.5495,2.5507,2.5528,2.555,2.5555,2.5559,2.5575,2.5581,2.5511,2.5511,2.5511,0,2.521,2.525,2.5259,2.5287,2.5303,2.5303,2.5332,2.5347,2.5377,2.5387,2.5379,2.5431,2.5445,2.5486,2.5498,2.5509,2.5516,2.5503,2.5554,2.5558,2.5562,2.5578,2.5584,2.5512,2.5512,2.5512,2.5511,0,2.5265,2.5293,2.5314,2.5345,2.5363,2.5392,2.5404,2.5422,2.5424,2.5434,2.5469,2.5487,2.5513,2.5524,2.5525,2.5566,2.556,2.5553,2.5536,2.557,2.5584,2.559,2.5514,2.5513,2.5513,2.5512,0,0,2.5306,2.5343,2.535,2.5365,2.5393,2.5414,2.5443,2.5471,2.5486,2.5507,2.5531,2.5567,2.5561,2.5576,2.558,2.5599,2.5634,2.5589,2.559,2.5596,2.568,2.5684,2.5691,2.5632,2.5633,2.5634,2.5678,0,2.5345,2.5398,2.5408,2.5454,2.548,2.5481,2.5506,2.5526,2.5536,2.5559,2.557,2.5596,2.5586,2.5595,2.5614,2.5626,2.5651,2.5623,2.5654,2.5655,2.5647,2.5699,2.5703,2.5743,2.5683,2.5684,2.5685,0,2.5397,2.5422,2.5471,2.5497,2.5509,2.5531,2.5558,2.5581,2.5603,2.5609,2.5627,2.5629,2.5659,2.5643,2.5684,2.5665,2.5679,2.5687,2.5688,2.569,2.5671,2.5701,2.5756,2.5762,2.5694,2.5693,2.5693,0,2.5422,2.5467,2.5503,2.5515,2.5547,2.5563,2.5576,2.5598,2.5614,2.5638,2.5649,2.5675,2.5689,2.5709,2.5717,2.5705,2.5758,2.5742,2.5763,2.5763,2.5773,2.5772,2.583,2.5784,2.5784,2.5783,2.5783,0,2.5464,2.5494,2.5515,2.5536,2.557,2.5581,2.5613,2.5626,2.5646,2.567,2.5672,2.5694,2.5705,2.5729,2.5736,2.5769,2.5776,2.5781,2.5782,2.578,2.5779,2.5788,2.5785,2.5785,2.5785,2.5784,2.5784,0,2.5496,2.5511,2.555,2.5577,2.5585,2.5609,2.5631,2.5652,2.5664,2.5694,2.5702,2.5719,2.5747,2.5759,2.5793,2.5798,2.5835,2.5835,2.5828,2.5828,2.5848,2.5846,2.5913,2.5922,2.5871,2.5871,2.5872,0,2.5521,2.5544,2.5575,2.5592,2.5607,2.5634,2.5652,2.5664,2.5682,2.5711,2.5728,2.5757,2.578,2.5825,2.584,2.5866,2.5866,2.5888,2.5869,2.5867,2.5865,2.5863,2.5865,2.589,2.5891,2.5891,2.5891,0,2.5564,2.5571,2.5598,2.5627,2.5649,2.5672,2.5694,2.5708,2.5724,2.5744,2.5774,2.5792,2.5828,2.5856,2.5884,2.5897,2.5896,2.5898,2.5904,2.5901,2.5896,2.5898,2.5836,2.5895,2.5895,2.5895,2.5894,2.5894,2.5593,2.5614,2.564,2.5669,2.5688,2.571,2.5732,2.5747,2.5772,2.5804,2.5809,2.5841,2.5864,2.5901,2.5916,2.594,2.5934,2.5943,2.5945,2.5947,2.5948,2.5893,2.5945,2.5945,2.5945,2.5945,2.5945,0,2.5636,2.5653,2.5681,2.5713,2.5737,2.5737,2.5763,2.5782,2.581,2.5832,2.5856,2.5891,2.5919,2.5937,2.5965,2.5981,2.5982,2.5988,2.5986,2.5989,2.5952,2.5943,2.5987,2.5987,2.5987,2.5987,2.5987,2.5987,2.5661,2.5697,2.5708,2.5753,2.577,2.5803,2.5817,2.5837,2.5855,2.5894,2.5918,2.5931,2.5952,2.5982,2.6007,2.6012,2.6021,2.6028,2.6032,2.5996,2.5992,2.5987,2.598,2.603,2.603,2.6067,2.6068,2.6068]}]]